Location: Agadir Irigdalene
(31.2522°N, 8.7797°W)
Time: 15:31:42
(UTC+00:00)

Cosmos 1934 Rocket - Pass Details

Date: 01 December 2020
Orbit: 937 x 1000 km, 83.0° (Epoch: 25 January)

Event Time Altitude Azimuth Distance (km) Brightness Sun altitude
Rises 19:02:45 0° 2° (N) 3,719 6.9 -19.0°
Reaches altitude 10° 19:05:27 10° 9° (N) 2,761 6.1 -19.6°
Maximum altitude 19:11:27 43° 80° (E) 1,347 4.2 -20.8°
Drops below altitude 10° 19:17:20 10° 151° (SSE) 2,713 6.2 -22.0°
Sets 19:19:56 0° 158° (SSE) 3,647 6.9 -22.6°
